Location: Eimen
(51.8766°N, 9.7806°E)
Time: 07:42:21
(UTC+00:00)

Envisat - Pass Details

Date: 12 August 2024
Orbit: 762 x 764 km, 98.3° (Epoch: 08 September)

Event Time Altitude Azimuth Distance (km) Brightness Sun altitude
Rises 02:11:04 0° 18° (NNE) 3,241 7.6 -14.3°
Reaches altitude 10° 02:13:29 10° 25° (NNE) 2,310 6.7 -14.0°
Maximum altitude 02:18:23 46° 98° (E) 1,029 3.9 -13.5°
Drops below altitude 10° 02:23:13 10° 172° (S) 2,292 5.1 -13.0°
Enters shadow 02:24:17 - 175° (S) 2,698 5.4 -12.9°
